Location: Champs
(48.8539°N, 2.6040°E)
Time: 06:08:01
(UTC+00:00)

Cosmos 2333 Rocket - Pass Details

Date: 26 October 2021
Orbit: 837 x 865 km, 70.8° (Epoch: 04 December)

Event Time Altitude Azimuth Distance (km) Brightness Sun altitude
Exits shadow 03:03:13 19° 357° (N) 1,948 4.2 -33.7°
Maximum altitude 03:06:33 33° 48° (NE) 1,420 3.7 -33.2°
Drops below altitude 10° 03:11:43 10° 112° (ESE) 2,505 5.2 -32.4°
Sets 03:14:26 0° 122° (ESE) 3,439 5.9 -32.0°
